Regional Weather Roundup
Issued by NWS

Home | Current Version | Previous Version | Graphics & Text | Print | Product List | Glossary On
Versions: 1 2 3 4 5 6 7 8 9 10 11 12 13 14 15 16 17 18 19 20 21 22 23 24 25 26 27 28 29 30 31 32 33 34 35 36 37 38 39 40 41 42 43 44 45 46 47 48 49 50
000
ASUS43 KMPX 021510
RWRMN
WEATHER ROUNDUP FOR MINNESOTA
NATIONAL WEATHER SERVICE TWIN CITIES/CHANHASSEN MN
1000 AM CDT SUN AUG 02 2015


NOTE: "FAIR" INDICATES FEW OR NO CLOUDS BELOW 12,000 FEET WITH NO
SIGNIFICANT WEATHER AND/OR OBSTRUCTIONS TO VISIBILITY. N/A MEANS
CURRENT SKY AND/OR WEATHER CONDITIONS ARE NOT AVAILABLE.

MNZ060>063-068>070-021600-
   Twin Cities Metro

CITY           SKY/WX    TMP DP  RH WIND       PRES   REMARKS
TWIN CITIES    MOSUNNY   77  64  64 SW13G20   29.65R
ST PAUL        SUNNY     78  65  63 SW13G20   29.64S
CRYSTAL        SUNNY     78  64  61 SW15      29.62F
BLAINE         PTSUNNY   79  66  65 W9G16     29.64S
LAKEVILLE      SUNNY     75  64  69 W9G16     29.67R
EDEN PRAIRIE   SUNNY     78  65  63 SW12G18   29.64R
SOUTH ST PAUL  SUNNY     78  64  60 SW10G17   29.65R
LAKE ELMO      FAIR      77  66  69 SW15      29.65F
$$
MNZ001>005-007-008-013>017-022>024-027-028-021600-
   Northwest Minnesota

CITY           SKY/WX    TMP DP  RH WIND       PRES   REMARKS
BEMIDJI        PTSUNNY   69  62  77 NW12      29.73R
HALLOCK        SUNNY     68  57  68 N12       29.78S
ROSEAU         SUNNY     64  57  77 NW12G17   29.75R
WARROAD        MOSUNNY   66  59  77 NW15      29.74R
THIEF RVR FALL PTSUNNY   68  57  68 NW15      29.77R
CROOKSTON      SUNNY     68  57  68 NW14      29.78R
FOSSTON        PTSUNNY   70  59  68 N10       29.76R
DETROIT LAKES  MOSUNNY   68  61  77 NW13      29.77R
MOORHEAD       MOSUNNY   70  63  78 N12       29.78R
PARK RAPIDS    MOSUNNY   72  58  61 N8        29.73R
MAHNOMEN       PTSUNNY   67  62  83 N12       29.76R
$$
MNZ006-009>011-018-025>026-021600-
   North Central Minnesota

CITY           SKY/WX    TMP DP  RH WIND       PRES   REMARKS
BAUDETTE       PTSUNNY   69  61  75 NW16      29.71R
FLAG ISLAND    MOSUNNY   66  54  63 NW17      29.71R
INTL FALLS     MOSUNNY   69  56  62 N10       29.68R
WASKISH        MOSUNNY   70  61  73 NW8       29.71R
BIG FORK       MOSUNNY   68  61  77 N8        29.68R
LONGVILLE      CLOUDY    66  61  82 NW7       29.70R
GRAND RAPIDS   CLOUDY    66  57  72 NW13      29.70R
CRANE LAKE     MOSUNNY   64  59  82 NW7       29.67R
ORR            MOSUNNY   68  52  56 NW6       29.63S
COOK           MOSUNNY   64  61  88 NW3       29.65F
WALKER         PTSUNNY   68  61  78 NW10      29.72R
$$
MNZ012-019>021-037-021600-
   Northeast Minnesota

CITY           SKY/WX    TMP DP  RH WIND       PRES   REMARKS
DULUTH         CLOUDY    70  58  65 NW8       29.64S
ELY            PTSUNNY   63  59  88 CALM      29.64R
HIBBING        LGT RAIN  65  59  81 N6        29.65R
EVELETH        CLOUDY    63  59  88 CALM      29.65S
DULUTH HARBOR  CLOUDY    72  61  68 CALM      29.61F
TWO HARBORS    CLOUDY    68  63  83 NW5       29.57F
SILVER BAY     CLOUDY    66  59  77 CALM      29.60R
GRAND MARAIS     N/A     58  53  84 SW5       29.59S
G MARAIS ARPRT CLOUDY    66  55  68 NW7       29.63R
$$
MNZ029>031-032-039>041-046>048-054>057-064-021600-
   West Central Minnesota

CITY           SKY/WX    TMP DP  RH WIND       PRES   REMARKS
FERGUS FALLS   SUNNY     72  61  68 N14G23    29.75R
WHEATON        SUNNY     72  63  73 N15G23    29.77R
MORRIS         SUNNY     73  66  78 N15       29.71R
ALEXANDRIA     SUNNY     74  62  66 N17       29.73R
ELBOW LAKE     FAIR      72  62  70 N14G22    29.74R
WADENA         MOSUNNY   70  63  78 NW9       29.73R
GLENWOOD       MOSUNNY   75  66  73 N10       29.71R
APPLETON       PTSUNNY   73  64  73 N17G23    29.72R
BENSON         SUNNY     75  63  64 N13       29.71R
ORTONVILLE     PTSUNNY   72  64  78 N17G25    29.74R
MADISON        MOSUNNY   75  64  69 N18G26    29.73R
WILLMAR        FAIR      75  63  64 NW18      29.70R
$$
MNZ033>034-036-042>043-049>051-058-059-021600-
   Central Minnesota

CITY           SKY/WX    TMP DP  RH WIND       PRES   REMARKS
ST CLOUD       MOSUNNY   71  66  84 CALM      29.66R
SAUK CENTRE    FAIR      73  66  78 NW9       29.68R
PAYNESVILLE    SUNNY     72  63  72 W10       29.66F
AITKIN         PTSUNNY   73  63  68 W3        29.67R
PINE RIVER     PTSUNNY   72  61  68 NW8       29.74R
BRAINERD       CLOUDY    72  61  68 N8        29.69R
STAPLES        PTSUNNY   70  61  73 NW5       29.71R
LONG PRAIRIE   FAIR      70  64  83 N9        29.69R
LITTLE FALLS   CLOUDY    70  64  83 CALM      29.66F
LITCHFIELD     SUNNY     75  66  73 W10       29.66F
BUFFALO        SUNNY     73  64  74 SW6       29.65F
MAPLE LAKE     SUNNY     73  66  78 W5        29.66F
$$
MNZ037-044-045-052-053-021600-
   East Central Minnesota

CITY           SKY/WX    TMP DP  RH WIND       PRES   REMARKS
PRINCETON      CLOUDY    72  66  83 CALM      29.65F
MORA           PTSUNNY   68  63  83 S5        29.65F
CAMBRIDGE      CLOUDY    73  63  68 CALM      29.65R
RUSH CITY      PTSUNNY   72  66  82 CALM      29.67R
MOOSE LAKE     CLOUDY    68  61  77 NE3       29.60F
HINCKLEY       FAIR      68  64  88 S6        29.63F
CLOQUET        CLOUDY    72  55  56 W10       29.67R
MCGREGOR       CLOUDY    72  59  64 N3        29.65R
$$
MNZ071>073-080-081-089-090-097-098-021600-
   Southwest Minnesota

CITY           SKY/WX    TMP DP  RH WIND       PRES   REMARKS
MONTEVIDEO     MOSUNNY   79  64  61 N21G29    29.73R
GRANITE FALLS  SUNNY     77  64  63 NW14G24   29.72R
CANBY          SUNNY     77  63  61 NW15G23   29.75R
MARSHALL       SUNNY     81  59  47 NW16G24   29.74R
REDWOOD FALLS  SUNNY     81  61  50 NW20G28   29.69R
OLIVIA         SUNNY     73  61  64 NW17G24   29.69R
PIPESTONE      MOSUNNY   75  64  69 W8        29.78R
WINDOM         SUNNY     79  66  65 SW12      29.74R
WORTHINGTON    SUNNY     77  64  65 SW9       29.76S
JACKSON        SUNNY     79  68  69 SW12      29.76S
TRACY          SUNNY     79  64  61 W6        29.74R
SLAYTON        SUNNY     78  63  61 W14       29.77R
$$
MNZ065>067-074>077-082>085-091>093-021600-
   South Central Minnesota

CITY           SKY/WX    TMP DP  RH WIND       PRES   REMARKS
MANKATO        SUNNY     79  64  61 SW15G22   29.69R
NEW ULM        SUNNY     79  63  57 W14       29.69R
ST JAMES       SUNNY     81  66  61 SW14G20   29.72R
FAIRMONT       SUNNY     79  64  61 SW15      29.73S
GLENCOE        SUNNY     78  66  65 W9G18     29.67R
FARIBAULT      SUNNY     79  70  73 SW9G16    29.69R
OWATONNA       SUNNY     79  68  69 SW16      29.69S
WASECA         SUNNY     77  68  73 SW13G20   29.71S
ALBERT LEA     SUNNY     79  70  73 SW10G17   29.72F
$$
MNZ078>079-086>088-094>096-021600-
   Southeast Minnesota

CITY           SKY/WX    TMP DP  RH WIND       PRES   REMARKS
ROCHESTER      SUNNY     78  70  76 SW17      29.71F
RED WING       SUNNY     81  66  61 W9        29.64S
STANTON        SUNNY     79  67  67 W10       29.66R
DODGE CENTER   SUNNY     79  70  73 SW20G25   29.70F
WINONA         SUNNY     81  68  65 SW8       29.67F
AUSTIN         SUNNY     81  70  69 SW15      29.72F
PRESTON        SUNNY     77  67  70 SW13G20   29.73F
$$
ABBREVIATIONS USED IN REMARKS
   TC - TEMPERATURES IN CELSIUS
  WCI - WIND CHILL INDEX
   HX - HEAT INDEX
  VSB - VISIBILITY
$$


USA.gov is the U.S. government's official web portal to all federal, state and local government web resources and services.